INTELSAT 30 (IS-30) (40271 NORAD) Tracking and Keplerian Element Data

This shows tracking and keplerian element data for the satellite.

Feedback or suggestion? Click here.




ElementValue
Catalog40271
NameINTELSAT 30 (IS-30)
Epoch Orbit2894
Epoch Day269.29296603
Epoch Year2022
RAAN248.9886
Inclination0.0186
Eccentricity0.0003827
Argument of Perigee220.3906
Mean Anonmoly266.1565
Mean Motion1.00301929
Decay Rate-1.53E-06
L11 40271U 14062A 22269.29296603 -.00000153 00000+0 00000+0 0 9993
L22 40271 0.0186 248.9886 0003827 220.3906 266.1565 1.00301929 28947

Live tracking and technical data element details for INTELSAT 30 (IS-30) (NORAD 40271). INTELSAT 30 (IS-30) can be tracked NOW for your location showing map with azimuth and elevation plus other details from your city location.

Track the satellite on the map from your city or location and see movement details for azimuth, elevation, latitude, longitude, range, height, and movement on the map or in text.







IsCatalogInMostPopularTable: catalog: 40271, numindb: 685
Update: records affected: 1



GetName: 40271 INTELSAT 30 (IS-30)

Hit Count: updated at: Fri, 30 Sep 2022 02:34:50 GMT